Time,TemperatureF,DewpointF,PressureIn,WindDirection,WindDirectionDegrees,WindSpeedMPH,WindSpeedGustMPH,Humidity,HourlyPrecipIn,Conditions,Clouds,dailyrainin,SolarRadiationWatts/m^2,SoftwareType,DateUTC
2013-04-18 00:06:00,42.8,39.2,29.71,NNW,341,21.0,21.0,87,0.00,,,0.00,0,Wunderground v.1.15,2013-04-18 05:06:00,
2013-04-18 00:12:00,42.7,39.1,29.70,NNW,333,20.0,27.0,87,0.00,,,0.00,0,Wunderground v.1.15,2013-04-18 05:12:00,
2013-04-18 00:17:00,42.7,39.1,29.70,North,357,21.0,21.0,87,0.00,,,0.00,0,Wunderground v.1.15,2013-04-18 05:17:00,
2013-04-18 00:24:00,42.7,39.1,29.70,NNW,340,21.0,24.0,87,0.00,,,0.00,0,Wunderground v.1.15,2013-04-18 05:24:00,
2013-04-18 00:30:00,42.6,39.0,29.72,NW,324,20.0,22.0,87,0.00,,,0.00,0,Wunderground v.1.15,2013-04-18 05:30:00,
2013-04-18 00:35:00,42.6,38.7,29.70,NNW,346,20.0,20.0,86,0.00,,,0.00,0,Wunderground v.1.15,2013-04-18 05:35:00,
2013-04-18 00:42:00,42.5,38.6,29.70,North,357,20.0,25.0,86,0.00,,,0.00,0,Wunderground v.1.15,2013-04-18 05:42:00,
2013-04-18 00:47:00,42.5,38.9,29.69,North,357,19.0,25.0,87,0.00,,,0.00,0,Wunderground v.1.15,2013-04-18 05:47:00,
2013-04-18 00:54:00,42.4,38.5,29.70,NNE,12,21.0,33.0,86,0.00,,,0.00,0,Wunderground v.1.15,2013-04-18 05:54:00,
2013-04-18 01:00:00,42.4,38.5,29.71,North,352,20.0,21.0,86,0.00,,,0.00,0,Wunderground v.1.15,2013-04-18 06:00:00,
2013-04-18 01:06:00,42.3,38.4,29.72,North,352,21.0,22.0,86,0.00,,,0.01,0,Wunderground v.1.15,2013-04-18 06:06:00,
2013-04-18 01:11:00,42.2,38.3,29.72,NNW,347,20.0,22.0,86,0.00,,,0.01,0,Wunderground v.1.15,2013-04-18 06:11:00,
2013-04-18 01:17:00,42.2,38.6,29.71,North,352,17.0,21.0,87,0.06,,,0.02,0,Wunderground v.1.15,2013-04-18 06:17:00,
2013-04-18 01:24:00,42.0,38.4,29.71,NNW,342,19.0,27.0,87,0.12,,,0.04,0,Wunderground v.1.15,2013-04-18 06:24:00,
2013-04-18 01:30:00,41.8,38.2,29.71,NNW,337,20.0,28.0,87,0.20,,,0.07,0,Wunderground v.1.15,2013-04-18 06:30:00,
2013-04-18 01:35:00,41.5,37.9,29.70,North,357,22.0,22.0,87,0.07,,,0.07,0,Wunderground v.1.15,2013-04-18 06:35:00,
2013-04-18 01:42:00,41.4,37.8,29.71,NNW,330,20.0,22.0,87,0.04,,,0.07,0,Wunderground v.1.15,2013-04-18 06:42:00,
2013-04-18 01:47:00,41.2,37.6,29.71,NNW,347,21.0,29.0,87,0.00,,,0.07,0,Wunderground v.1.15,2013-04-18 06:47:00,
2013-04-18 01:54:00,41.0,37.4,29.71,NNW,338,20.0,29.0,87,0.00,,,0.07,0,Wunderground v.1.15,2013-04-18 06:54:00,
2013-04-18 01:59:00,40.9,37.3,29.71,NNW,337,19.0,33.0,87,0.00,,,0.08,0,Wunderground v.1.15,2013-04-18 06:59:00,
2013-04-18 02:06:00,40.7,37.1,29.71,North,357,21.0,33.0,87,0.00,,,0.08,0,Wunderground v.1.15,2013-04-18 07:06:00,
2013-04-18 02:11:00,40.6,37.0,29.71,North,2,20.0,33.0,87,0.00,,,0.08,0,Wunderground v.1.15,2013-04-18 07:11:00,
2013-04-18 02:18:00,40.4,36.8,29.73,NNW,341,21.0,33.0,87,0.00,,,0.08,0,Wunderground v.1.15,2013-04-18 07:18:00,
2013-04-18 02:24:00,40.4,36.8,29.72,NNW,328,19.0,33.0,87,0.00,,,0.08,0,Wunderground v.1.15,2013-04-18 07:24:00,
2013-04-18 02:30:00,40.4,36.8,29.71,NNW,347,20.0,33.0,87,0.00,,,0.08,0,Wunderground v.1.15,2013-04-18 07:30:00,
2013-04-18 02:35:00,40.3,36.7,29.72,NNW,328,21.0,21.0,87,0.00,,,0.08,0,Wunderground v.1.15,2013-04-18 07:35:00,
2013-04-18 02:42:00,40.2,36.6,29.72,NNW,331,19.0,33.0,87,0.00,,,0.08,0,Wunderground v.1.15,2013-04-18 07:42:00,
2013-04-18 02:47:00,40.2,36.6,29.71,NNW,335,20.0,33.0,87,0.00,,,0.08,0,Wunderground v.1.15,2013-04-18 07:47:00,
2013-04-18 02:54:00,40.1,36.5,29.72,NNW,341,19.0,33.0,87,0.00,,,0.08,0,Wunderground v.1.15,2013-04-18 07:54:00,
2013-04-18 02:59:00,40.1,36.5,29.73,NNW,337,19.0,33.0,87,0.00,,,0.09,0,Wunderground v.1.15,2013-04-18 07:59:00,
2013-04-18 03:06:00,40.1,36.5,29.73,North,352,20.0,33.0,87,0.00,,,0.09,0,Wunderground v.1.15,2013-04-18 08:06:00,
2013-04-18 03:12:00,40.1,36.5,29.74,NNW,336,20.0,33.0,87,0.00,,,0.09,0,Wunderground v.1.15,2013-04-18 08:12:00,
2013-04-18 03:18:00,40.2,36.6,29.73,NNW,335,19.0,33.0,87,0.00,,,0.09,0,Wunderground v.1.15,2013-04-18 08:18:00,
2013-04-18 03:23:00,40.0,36.4,29.75,NW,316,16.0,33.0,87,0.00,,,0.09,0,Wunderground v.1.15,2013-04-18 08:23:00,
2013-04-18 03:30:00,39.8,36.0,29.74,NW,319,17.0,33.0,86,0.00,,,0.09,0,Wunderground v.1.15,2013-04-18 08:30:00,
2013-04-18 03:36:00,39.6,35.8,29.75,NNW,331,19.0,19.0,86,0.00,,,0.09,0,Wunderground v.1.15,2013-04-18 08:36:00,
2013-04-18 03:41:00,39.5,35.7,29.74,NNW,342,20.0,33.0,86,0.00,,,0.09,0,Wunderground v.1.15,2013-04-18 08:41:00,
2013-04-18 03:47:00,39.4,35.6,29.74,NW,319,19.0,33.0,86,0.00,,,0.09,0,Wunderground v.1.15,2013-04-18 08:47:00,
2013-04-18 03:54:00,39.2,35.4,29.75,NW,322,20.0,33.0,86,0.00,,,0.09,0,Wunderground v.1.15,2013-04-18 08:54:00,
2013-04-18 04:00:00,39.0,35.2,29.75,NNW,343,20.0,33.0,86,0.00,,,0.09,0,Wunderground v.1.15,2013-04-18 09:00:00,
2013-04-18 04:05:00,38.8,35.0,29.75,NW,324,22.0,22.0,86,0.00,,,0.09,0,Wunderground v.1.15,2013-04-18 09:05:00,
2013-04-18 04:12:00,38.6,34.8,29.74,NW,316,21.0,33.0,86,0.00,,,0.09,0,Wunderground v.1.15,2013-04-18 09:12:00,
2013-04-18 04:18:00,38.5,34.7,29.74,NNW,329,22.0,33.0,86,0.00,,,0.09,0,Wunderground v.1.15,2013-04-18 09:18:00,
2013-04-18 04:23:00,38.4,34.6,29.73,NW,322,22.0,33.0,86,0.00,,,0.09,0,Wunderground v.1.15,2013-04-18 09:23:00,
2013-04-18 04:30:00,38.3,34.5,29.74,NW,314,22.0,33.0,86,0.00,,,0.09,0,Wunderground v.1.15,2013-04-18 09:30:00,
2013-04-18 04:35:00,38.2,34.4,29.74,NW,312,21.0,33.0,86,0.00,,,0.09,0,Wunderground v.1.15,2013-04-18 09:35:00,
2013-04-18 04:42:00,38.0,34.2,29.75,NNW,336,21.0,33.0,86,0.00,,,0.09,0,Wunderground v.1.15,2013-04-18 09:42:00,
2013-04-18 04:48:00,37.9,34.1,29.76,NW,317,19.0,33.0,86,0.00,,,0.09,0,Wunderground v.1.15,2013-04-18 09:48:00,
2013-04-18 04:54:00,37.7,33.6,29.76,NNW,330,20.0,33.0,85,0.00,,,0.09,0,Wunderground v.1.15,2013-04-18 09:54:00,
2013-04-18 05:00:00,37.5,33.4,29.77,NW,324,22.0,33.0,85,0.00,,,0.09,0,Wunderground v.1.15,2013-04-18 10:00:00,
2013-04-18 05:06:00,37.4,33.0,29.76,NW,314,23.0,23.0,84,0.00,,,0.09,0,Wunderground v.1.15,2013-04-18 10:06:00,
2013-04-18 05:12:00,37.4,33.0,29.78,NNW,344,21.0,33.0,84,0.00,,,0.09,0,Wunderground v.1.15,2013-04-18 10:12:00,
2013-04-18 05:18:00,37.3,32.6,29.79,NW,321,20.0,33.0,83,0.00,,,0.09,0,Wunderground v.1.15,2013-04-18 10:18:00,
2013-04-18 05:24:00,37.3,32.6,29.79,NNW,335,19.0,33.0,83,0.00,,,0.09,0,Wunderground v.1.15,2013-04-18 10:24:00,
2013-04-18 05:30:00,37.3,32.6,29.80,WNW,291,17.0,33.0,83,0.00,,,0.09,0,Wunderground v.1.15,2013-04-18 10:30:00,
2013-04-18 05:36:00,37.3,32.6,29.80,NNW,335,20.0,20.0,83,0.00,,,0.09,0,Wunderground v.1.15,2013-04-18 10:36:00,
2013-04-18 05:42:00,37.3,32.6,29.81,NW,322,20.0,33.0,83,0.00,,,0.09,0,Wunderground v.1.15,2013-04-18 10:42:00,
2013-04-18 05:48:00,37.1,32.1,29.82,WNW,302,21.0,33.0,82,0.00,,,0.09,0,Wunderground v.1.15,2013-04-18 10:48:00,
2013-04-18 05:54:00,37.1,32.1,29.82,NNW,327,20.0,33.0,82,0.00,,,0.09,0,Wunderground v.1.15,2013-04-18 10:54:00,
2013-04-18 05:59:00,37.0,32.3,29.82,NNW,333,19.0,33.0,83,0.00,,,0.09,0,Wunderground v.1.15,2013-04-18 10:59:00,
2013-04-18 06:06:00,36.7,32.0,29.81,NNW,328,21.0,33.0,83,0.00,,,0.09,0,Wunderground v.1.15,2013-04-18 11:06:00,
2013-04-18 06:12:00,36.5,31.8,29.80,NW,318,23.0,33.0,83,0.00,,,0.09,0,Wunderground v.1.15,2013-04-18 11:12:00,
2013-04-18 06:17:00,36.4,32.0,29.80,NW,321,21.0,33.0,84,0.00,,,0.09,0,Wunderground v.1.15,2013-04-18 11:17:00,
2013-04-18 06:24:00,36.2,31.8,29.80,NW,326,21.0,33.0,84,0.00,,,0.09,0,Wunderground v.1.15,2013-04-18 11:24:00,
2013-04-18 06:30:00,36.2,31.8,29.80,NNW,336,22.0,33.0,84,0.00,,,0.09,0,Wunderground v.1.15,2013-04-18 11:30:00,
2013-04-18 06:35:00,36.0,31.6,29.80,NNW,335,21.0,33.0,84,0.00,,,0.09,0,Wunderground v.1.15,2013-04-18 11:35:00,
2013-04-18 06:41:00,35.9,31.5,29.80,NW,321,21.0,33.0,84,0.00,,,0.09,0,Wunderground v.1.15,2013-04-18 11:41:00,
2013-04-18 06:48:00,35.8,31.4,29.80,NW,316,21.0,33.0,84,0.00,,,0.09,0,Wunderground v.1.15,2013-04-18 11:48:00,
2013-04-18 06:53:00,35.5,31.1,29.81,NW,324,22.0,33.0,84,0.00,,,0.09,0,Wunderground v.1.15,2013-04-18 11:53:00,
2013-04-18 07:00:00,35.4,31.0,29.83,NW,316,22.0,33.0,84,0.00,,,0.09,0,Wunderground v.1.15,2013-04-18 12:00:00,
2013-04-18 07:05:00,35.4,31.0,29.83,NW,319,22.0,22.0,84,0.00,,,0.09,0,Wunderground v.1.15,2013-04-18 12:05:00,
2013-04-18 07:11:00,35.3,30.7,29.83,NW,318,23.0,33.0,83,0.00,,,0.09,7,Wunderground v.1.15,2013-04-18 12:11:00,
2013-04-18 07:18:00,35.4,30.5,29.84,NNW,339,23.0,33.0,82,0.00,,,0.09,9,Wunderground v.1.15,2013-04-18 12:18:00,
2013-04-18 07:24:00,35.4,30.5,29.85,NW,312,19.0,33.0,82,0.00,,,0.09,7,Wunderground v.1.15,2013-04-18 12:24:00,
2013-04-18 07:30:00,35.3,30.4,29.85,NW,318,19.0,34.0,82,0.00,,,0.09,12,Wunderground v.1.15,2013-04-18 12:30:00,
2013-04-18 07:35:00,35.1,29.9,29.85,NNW,334,22.0,33.0,81,0.00,,,0.09,21,Wunderground v.1.15,2013-04-18 12:35:00,
2013-04-18 07:42:00,35.1,29.9,29.86,NNW,335,24.0,33.0,81,0.00,,,0.09,25,Wunderground v.1.15,2013-04-18 12:42:00,
2013-04-18 07:48:00,35.1,29.9,29.87,WNW,301,21.0,33.0,81,0.00,,,0.09,19,Wunderground v.1.15,2013-04-18 12:48:00,
2013-04-18 07:53:00,35.0,29.8,29.86,NW,321,21.0,33.0,81,0.00,,,0.09,28,Wunderground v.1.15,2013-04-18 12:53:00,
2013-04-18 08:00:00,35.0,29.5,29.87,NW,314,22.0,33.0,80,0.00,,,0.09,42,Wunderground v.1.15,2013-04-18 13:00:00,
2013-04-18 08:06:00,35.1,29.6,29.87,NW,322,23.0,23.0,80,0.00,,,0.09,32,Wunderground v.1.15,2013-04-18 13:06:00,
2013-04-18 08:11:00,35.2,30.0,29.88,NNW,330,20.0,33.0,81,0.00,,,0.09,33,Wunderground v.1.15,2013-04-18 13:11:00,
2013-04-18 08:18:00,35.2,29.6,29.88,NW,324,21.0,33.0,80,0.00,,,0.09,91,Wunderground v.1.15,2013-04-18 13:18:00,
2013-04-18 08:23:00,35.3,29.7,29.88,WNW,303,20.0,33.0,80,0.00,,,0.09,69,Wunderground v.1.15,2013-04-18 13:23:00,
2013-04-18 08:30:00,35.4,29.8,29.89,NW,322,19.0,33.0,80,0.00,,,0.09,70,Wunderground v.1.15,2013-04-18 13:30:00,
2013-04-18 08:38:00,35.5,29.6,29.89,NNW,330,20.0,33.0,79,0.00,,,0.09,83,Wunderground v.1.15,2013-04-18 13:38:00,
2013-04-18 08:43:00,35.5,29.6,29.89,NW,323,22.0,33.0,79,0.00,,,0.09,81,Wunderground v.1.15,2013-04-18 13:43:00,
2013-04-18 08:50:00,35.4,29.8,29.89,NNW,334,23.0,33.0,80,0.00,,,0.09,107,Wunderground v.1.15,2013-04-18 13:50:00,
2013-04-18 08:55:00,35.4,29.8,29.90,NW,310,22.0,22.0,80,0.00,,,0.09,81,Wunderground v.1.15,2013-04-18 13:55:00,
2013-04-18 09:02:00,35.3,30.1,29.90,NNW,333,20.0,33.0,81,0.00,,,0.09,93,Wunderground v.1.15,2013-04-18 14:02:00,
2013-04-18 09:08:00,35.3,30.1,29.91,NW,319,18.0,33.0,81,0.00,,,0.09,121,Wunderground v.1.15,2013-04-18 14:08:00,
2013-04-18 09:13:00,35.3,30.1,29.91,NW,310,17.0,33.0,81,0.00,,,0.09,100,Wunderground v.1.15,2013-04-18 14:13:00,
2013-04-18 09:19:00,35.3,29.7,29.91,NW,319,19.0,33.0,80,0.00,,,0.09,135,Wunderground v.1.15,2013-04-18 14:19:00,
2013-04-18 09:26:00,35.5,29.6,29.90,NNW,330,20.0,20.0,79,0.00,,,0.09,193,Wunderground v.1.15,2013-04-18 14:26:00,
2013-04-18 09:31:00,35.7,29.8,29.90,NNW,340,20.0,33.0,79,0.00,,,0.09,165,Wunderground v.1.15,2013-04-18 14:31:00,
2013-04-18 09:37:00,35.8,29.9,29.91,WNW,301,20.0,33.0,79,0.00,,,0.09,160,Wunderground v.1.15,2013-04-18 14:37:00,
2013-04-18 09:44:00,36.0,29.5,29.92,NW,310,21.0,33.0,77,0.00,,,0.09,243,Wunderground v.1.15,2013-04-18 14:44:00,
2013-04-18 09:49:00,36.2,30.0,29.92,NW,314,20.0,33.0,78,0.00,,,0.09,200,Wunderground v.1.15,2013-04-18 14:49:00,
2013-04-18 09:56:00,36.2,29.7,29.93,NW,322,19.0,19.0,77,0.00,,,0.09,200,Wunderground v.1.15,2013-04-18 14:56:00,
2013-04-18 10:01:00,36.3,29.5,29.93,NW,322,18.0,33.0,76,0.00,,,0.09,176,Wunderground v.1.15,2013-04-18 15:01:00,
2013-04-18 10:08:00,36.3,29.5,29.93,NW,322,18.0,33.0,76,0.00,,,0.09,186,Wunderground v.1.15,2013-04-18 15:08:00,
2013-04-18 10:13:00,36.4,29.6,29.93,NNW,334,18.0,33.0,76,0.00,,,0.09,195,Wunderground v.1.15,2013-04-18 15:13:00,
2013-04-18 10:20:00,36.4,28.9,29.93,NNW,327,20.0,22.0,74,0.00,,,0.09,183,Wunderground v.1.15,2013-04-18 15:20:00,
2013-04-18 10:26:00,36.3,29.1,29.94,NW,316,21.0,21.0,75,0.00,,,0.09,190,Wunderground v.1.15,2013-04-18 15:26:00,
2013-04-18 10:31:00,36.4,29.2,29.94,NW,324,19.0,33.0,75,0.00,,,0.09,243,Wunderground v.1.15,2013-04-18 15:31:00,
2013-04-18 10:38:00,36.5,29.3,29.93,NW,314,18.0,18.0,75,0.00,,,0.09,248,Wunderground v.1.15,2013-04-18 15:38:00,
2013-04-18 10:43:00,36.7,29.5,29.93,NW,308,20.0,33.0,75,0.00,,,0.09,308,Wunderground v.1.15,2013-04-18 15:43:00,
2013-04-18 10:49:00,37.0,29.5,29.94,NW,308,18.0,33.0,74,0.00,,,0.09,327,Wunderground v.1.15,2013-04-18 15:49:00,
2013-04-18 10:56:00,37.2,29.3,29.94,NW,322,20.0,33.0,73,0.00,,,0.09,246,Wunderground v.1.15,2013-04-18 15:56:00,
2013-04-18 11:02:00,37.3,29.4,29.94,NW,309,20.0,33.0,73,0.00,,,0.09,285,Wunderground v.1.15,2013-04-18 16:02:00,
2013-04-18 11:07:00,37.5,29.6,29.94,NW,310,18.0,19.0,73,0.00,,,0.09,276,Wunderground v.1.15,2013-04-18 16:07:00,
2013-04-18 11:13:00,37.6,30.1,29.95,NW,316,18.0,33.0,74,0.00,,,0.09,269,Wunderground v.1.15,2013-04-18 16:13:00,
2013-04-18 11:20:00,37.8,29.9,29.95,NNW,327,20.0,33.0,73,0.00,,,0.09,204,Wunderground v.1.15,2013-04-18 16:20:00,
2013-04-18 11:25:00,37.8,29.9,29.94,NNW,330,18.0,33.0,73,0.00,,,0.09,279,Wunderground v.1.15,2013-04-18 16:25:00,
2013-04-18 11:32:00,37.9,29.7,29.94,NW,312,18.0,33.0,72,0.00,,,0.09,297,Wunderground v.1.15,2013-04-18 16:32:00,
2013-04-18 11:37:00,37.9,29.3,29.94,NW,306,21.0,33.0,71,0.00,,,0.09,299,Wunderground v.1.15,2013-04-18 16:37:00,
2013-04-18 11:44:00,38.0,29.4,29.94,NNW,339,22.0,33.0,71,0.00,,,0.09,329,Wunderground v.1.15,2013-04-18 16:44:00,
2013-04-18 11:49:00,38.3,30.1,29.94,NW,310,22.0,33.0,72,0.00,,,0.09,388,Wunderground v.1.15,2013-04-18 16:49:00,
2013-04-18 11:58:00,38.6,30.0,29.94,NNW,330,18.0,33.0,71,0.00,,,0.09,350,Wunderground v.1.15,2013-04-18 16:58:00,
2013-04-18 12:03:00,38.7,29.8,29.94,NW,312,18.0,33.0,70,0.00,,,0.09,313,Wunderground v.1.15,2013-04-18 17:03:00,
2013-04-18 12:10:00,38.8,30.2,29.94,WNW,301,18.0,33.0,71,0.00,,,0.09,383,Wunderground v.1.15,2013-04-18 17:10:00,
2013-04-18 12:15:00,39.1,30.1,29.94,WNW,299,18.0,33.0,70,0.00,,,0.09,322,Wunderground v.1.15,2013-04-18 17:15:00,
2013-04-18 12:21:00,39.2,29.9,29.94,NW,326,18.0,33.0,69,0.00,,,0.09,350,Wunderground v.1.15,2013-04-18 17:21:00,
2013-04-18 12:28:00,39.4,29.7,29.94,NW,322,19.0,33.0,68,0.00,,,0.09,308,Wunderground v.1.15,2013-04-18 17:28:00,
2013-04-18 12:34:00,39.2,29.5,29.94,NW,312,18.0,33.0,68,0.00,,,0.09,274,Wunderground v.1.15,2013-04-18 17:34:00,
2013-04-18 12:40:00,39.2,29.9,29.94,NW,315,18.0,33.0,69,0.00,,,0.09,288,Wunderground v.1.15,2013-04-18 17:40:00,
2013-04-18 12:45:00,39.1,29.4,29.94,NNW,340,18.0,18.0,68,0.00,,,0.09,297,Wunderground v.1.15,2013-04-18 17:45:00,
2013-04-18 12:52:00,39.2,29.2,29.94,NNW,335,19.0,33.0,67,0.00,,,0.09,329,Wunderground v.1.15,2013-04-18 17:52:00,
2013-04-18 12:58:00,39.4,29.3,29.94,NNW,335,18.0,33.0,67,0.00,,,0.09,244,Wunderground v.1.15,2013-04-18 17:58:00,
2013-04-18 13:03:00,39.4,29.7,29.94,WNW,288,17.0,33.0,68,0.00,,,0.09,211,Wunderground v.1.15,2013-04-18 18:03:00,
2013-04-18 13:10:00,39.2,29.5,29.94,WNW,303,16.0,33.0,68,0.00,,,0.09,339,Wunderground v.1.15,2013-04-18 18:10:00,
2013-04-18 13:16:00,39.4,29.7,29.94,NW,321,16.0,16.0,68,0.00,,,0.09,294,Wunderground v.1.15,2013-04-18 18:16:00,
2013-04-18 13:22:00,39.5,29.4,29.95,North,2,17.0,33.0,67,0.00,,,0.09,304,Wunderground v.1.15,2013-04-18 18:22:00,
2013-04-18 13:28:00,39.7,28.9,29.94,WNW,298,19.0,20.0,65,0.00,,,0.09,336,Wunderground v.1.15,2013-04-18 18:28:00,
2013-04-18 13:34:00,39.9,29.8,29.95,NW,312,19.0,33.0,67,0.00,,,0.09,332,Wunderground v.1.15,2013-04-18 18:34:00,
2013-04-18 13:39:00,40.1,29.3,29.95,WNW,286,17.0,33.0,65,0.00,,,0.09,325,Wunderground v.1.15,2013-04-18 18:39:00,
2013-04-18 13:46:00,40.0,29.2,29.96,NNW,328,17.0,33.0,65,0.00,,,0.09,248,Wunderground v.1.15,2013-04-18 18:46:00,
2013-04-18 13:51:00,40.0,29.6,29.96,WNW,289,17.0,33.0,66,0.00,,,0.09,225,Wunderground v.1.15,2013-04-18 18:51:00,
2013-04-18 13:58:00,39.9,29.5,29.96,NW,315,15.0,33.0,66,0.00,,,0.09,243,Wunderground v.1.15,2013-04-18 18:58:00,
2013-04-18 14:04:00,39.9,29.5,29.96,WNW,303,15.0,33.0,66,0.00,,,0.09,225,Wunderground v.1.15,2013-04-18 19:04:00,
2013-04-18 14:10:00,40.0,29.6,29.96,NW,316,15.0,33.0,66,0.00,,,0.09,315,Wunderground v.1.15,2013-04-18 19:10:00,
2013-04-18 14:15:00,40.3,29.8,29.97,NW,320,18.0,33.0,66,0.00,,,0.09,290,Wunderground v.1.15,2013-04-18 19:15:00,
2013-04-18 14:22:00,40.3,29.5,29.97,WNW,287,17.0,33.0,65,0.00,,,0.09,309,Wunderground v.1.15,2013-04-18 19:22:00,
2013-04-18 14:27:00,40.4,29.6,29.97,WNW,303,16.0,33.0,65,0.00,,,0.09,318,Wunderground v.1.15,2013-04-18 19:27:00,
2013-04-18 14:34:00,40.3,29.5,29.97,West,275,18.0,33.0,65,0.00,,,0.09,255,Wunderground v.1.15,2013-04-18 19:34:00,
2013-04-18 14:39:00,40.5,29.3,29.97,NW,323,18.0,33.0,64,0.00,,,0.09,301,Wunderground v.1.15,2013-04-18 19:39:00,
2013-04-18 14:45:00,40.5,28.9,29.97,NW,306,18.0,18.0,63,0.00,,,0.09,260,Wunderground v.1.15,2013-04-18 19:45:00,
2013-04-18 14:52:00,40.5,29.3,29.97,NW,316,18.0,33.0,64,0.00,,,0.09,257,Wunderground v.1.15,2013-04-18 19:52:00,
2013-04-18 14:57:00,40.6,29.4,29.98,WNW,299,16.0,33.0,64,0.00,,,0.09,318,Wunderground v.1.15,2013-04-18 19:57:00,
2013-04-18 15:04:00,40.7,29.1,29.98,NNW,327,16.0,33.0,63,0.00,,,0.09,195,Wunderground v.1.15,2013-04-18 20:04:00,
2013-04-18 15:09:00,40.4,29.6,29.98,WNW,299,19.0,33.0,65,0.00,,,0.09,146,Wunderground v.1.15,2013-04-18 20:09:00,
2013-04-18 15:16:00,39.9,29.5,29.98,West,264,17.0,17.0,66,0.00,,,0.09,281,Wunderground v.1.15,2013-04-18 20:16:00,
2013-04-18 15:22:00,40.0,29.2,29.99,WNW,301,16.0,33.0,65,0.00,,,0.09,369,Wunderground v.1.15,2013-04-18 20:22:00,
2013-04-18 15:27:00,40.2,28.6,29.99,NW,314,18.0,26.0,63,0.00,,,0.09,359,Wunderground v.1.15,2013-04-18 20:27:00,
2013-04-18 15:33:00,40.4,28.8,29.99,WNW,291,19.0,33.0,63,0.00,,,0.09,174,Wunderground v.1.15,2013-04-18 20:33:00,
2013-04-18 15:40:00,40.0,29.2,29.99,West,276,17.0,33.0,65,0.00,,,0.09,146,Wunderground v.1.15,2013-04-18 20:40:00,
2013-04-18 15:46:00,39.8,28.6,29.99,NW,311,17.0,17.0,64,0.00,,,0.09,260,Wunderground v.1.15,2013-04-18 20:46:00,
2013-04-18 15:51:00,39.9,28.3,29.98,NW,311,18.0,33.0,63,0.00,,,0.09,348,Wunderground v.1.15,2013-04-18 20:51:00,
2013-04-18 15:58:00,40.3,28.7,29.98,NNW,339,17.0,33.0,63,0.00,,,0.09,269,Wunderground v.1.15,2013-04-18 20:58:00,
2013-04-18 16:04:00,40.2,28.6,29.98,NNW,341,18.0,33.0,63,0.00,,,0.09,169,Wunderground v.1.15,2013-04-18 21:04:00,
2013-04-18 16:09:00,39.9,28.7,29.98,NW,312,18.0,33.0,64,0.00,,,0.09,178,Wunderground v.1.15,2013-04-18 21:09:00,
2013-04-18 16:16:00,39.7,28.9,29.99,NNW,329,19.0,19.0,65,0.00,,,0.09,207,Wunderground v.1.15,2013-04-18 21:16:00,
2013-04-18 16:21:00,39.6,28.8,29.99,WNW,301,18.0,33.0,65,0.00,,,0.09,283,Wunderground v.1.15,2013-04-18 21:21:00,
2013-04-18 16:28:00,39.8,28.2,29.99,NNW,328,18.0,18.0,63,0.00,,,0.09,169,Wunderground v.1.15,2013-04-18 21:28:00,
2013-04-18 16:33:00,39.5,27.9,29.99,NW,312,18.0,33.0,63,0.00,,,0.09,148,Wunderground v.1.15,2013-04-18 21:33:00,
2013-04-18 16:40:00,39.4,28.2,29.99,NW,312,18.0,33.0,64,0.00,,,0.09,162,Wunderground v.1.15,2013-04-18 21:40:00,
2013-04-18 16:46:00,39.4,28.2,30.00,NW,317,18.0,33.0,64,0.00,,,0.09,229,Wunderground v.1.15,2013-04-18 21:46:00,
2013-04-18 16:52:00,39.6,27.6,30.00,NNW,331,17.0,33.0,62,0.00,,,0.09,146,Wunderground v.1.15,2013-04-18 21:52:00,
2013-04-18 16:58:00,39.7,28.1,30.00,WNW,297,18.0,33.0,63,0.00,,,0.09,153,Wunderground v.1.15,2013-04-18 21:58:00,
2013-04-18 17:03:00,39.7,27.7,30.00,NW,325,17.0,33.0,62,0.00,,,0.09,144,Wunderground v.1.15,2013-04-18 22:03:00,
2013-04-18 17:09:00,39.7,27.3,30.00,NW,325,19.0,33.0,61,0.00,,,0.09,162,Wunderground v.1.15,2013-04-18 22:09:00,
2013-04-18 17:16:00,39.8,27.8,30.01,WNW,299,18.0,18.0,62,0.00,,,0.09,156,Wunderground v.1.15,2013-04-18 22:16:00,
2013-04-18 17:21:00,39.8,27.8,30.01,NW,314,18.0,33.0,62,0.00,,,0.09,148,Wunderground v.1.15,2013-04-18 22:21:00,
2013-04-18 17:27:00,39.8,27.4,30.01,NW,326,18.0,33.0,61,0.00,,,0.09,93,Wunderground v.1.15,2013-04-18 22:27:00,
2013-04-18 17:34:00,39.6,27.6,30.01,NW,323,18.0,33.0,62,0.00,,,0.09,95,Wunderground v.1.15,2013-04-18 22:34:00,
2013-04-18 17:39:00,39.4,27.5,30.01,NNW,331,17.0,33.0,62,0.00,,,0.09,86,Wunderground v.1.15,2013-04-18 22:39:00,
2013-04-18 17:45:00,39.4,27.5,30.02,WNW,287,17.0,17.0,62,0.00,,,0.09,120,Wunderground v.1.15,2013-04-18 22:45:00,
2013-04-18 17:52:00,39.3,27.0,30.02,NW,326,17.0,33.0,61,0.00,,,0.09,105,Wunderground v.1.15,2013-04-18 22:52:00,
2013-04-18 17:57:00,39.3,26.6,30.02,WNW,302,17.0,19.0,60,0.00,,,0.09,88,Wunderground v.1.15,2013-04-18 22:57:00,
2013-04-18 18:03:00,39.4,26.7,30.02,NW,324,17.0,33.0,60,0.00,,,0.09,77,Wunderground v.1.15,2013-04-18 23:03:00,
2013-04-18 18:12:00,39.4,26.7,30.02,NW,322,16.0,33.0,60,0.00,,,0.09,74,Wunderground v.1.15,2013-04-18 23:12:00,
2013-04-18 18:17:00,39.4,26.7,30.02,WNW,302,15.0,33.0,60,0.00,,,0.09,67,Wunderground v.1.15,2013-04-18 23:17:00,
2013-04-18 18:24:00,39.4,26.7,30.02,NNW,328,14.0,33.0,60,0.00,,,0.09,72,Wunderground v.1.15,2013-04-18 23:24:00,
2013-04-18 18:30:00,39.4,26.7,30.02,WNW,291,15.0,33.0,60,0.00,,,0.09,77,Wunderground v.1.15,2013-04-18 23:30:00,
2013-04-18 18:35:00,39.5,26.8,30.03,NW,316,16.0,33.0,60,0.00,,,0.09,111,Wunderground v.1.15,2013-04-18 23:35:00,
2013-04-18 18:42:00,39.6,26.8,30.02,NW,308,16.0,33.0,60,0.00,,,0.09,95,Wunderground v.1.15,2013-04-18 23:42:00,
2013-04-18 18:47:00,39.7,26.5,30.02,NNW,333,16.0,33.0,59,0.00,,,0.09,77,Wunderground v.1.15,2013-04-18 23:47:00,
2013-04-18 18:54:00,39.7,26.5,30.03,NNW,330,15.0,33.0,59,0.00,,,0.09,79,Wunderground v.1.15,2013-04-18 23:54:00,
2013-04-18 18:59:00,39.7,26.9,30.03,NNW,335,14.0,33.0,60,0.00,,,0.09,65,Wunderground v.1.15,2013-04-18 23:59:00,
2013-04-18 19:05:00,39.7,27.3,30.03,NW,325,13.0,33.0,61,0.00,,,0.09,44,Wunderground v.1.15,2013-04-19 00:05:00,
2013-04-18 19:14:00,39.7,26.9,30.04,NW,305,14.0,33.0,60,0.00,,,0.09,32,Wunderground v.1.15,2013-04-19 00:14:00,
2013-04-18 19:19:00,39.6,26.4,30.03,NW,326,13.0,33.0,59,0.00,,,0.09,35,Wunderground v.1.15,2013-04-19 00:19:00,
2013-04-18 19:26:00,39.6,26.4,30.03,WNW,301,13.0,13.0,59,0.00,,,0.09,21,Wunderground v.1.15,2013-04-19 00:26:00,
2013-04-18 19:31:00,39.6,26.4,30.04,NW,324,14.0,33.0,59,0.00,,,0.09,12,Wunderground v.1.15,2013-04-19 00:31:00,
2013-04-18 19:38:00,39.6,26.4,30.04,WNW,289,12.0,33.0,59,0.00,,,0.09,11,Wunderground v.1.15,2013-04-19 00:38:00,
2013-04-18 19:43:00,39.6,26.4,30.04,NW,314,13.0,33.0,59,0.00,,,0.09,9,Wunderground v.1.15,2013-04-19 00:43:00,
2013-04-18 19:49:00,39.6,26.0,30.04,NW,317,14.0,33.0,58,0.00,,,0.09,5,Wunderground v.1.15,2013-04-19 00:49:00,
2013-04-18 19:56:00,39.5,25.9,30.05,NW,318,14.0,14.0,58,0.00,,,0.09,0,Wunderground v.1.15,2013-04-19 00:56:00,
2013-04-18 20:01:00,39.4,26.2,30.05,NW,312,13.0,33.0,59,0.00,,,0.09,0,Wunderground v.1.15,2013-04-19 01:01:00,
2013-04-18 20:07:00,39.3,26.6,30.05,NW,315,12.0,33.0,60,0.00,,,0.09,0,Wunderground v.1.15,2013-04-19 01:07:00,
2013-04-18 20:14:00,39.3,26.6,30.05,NNW,339,11.0,33.0,60,0.00,,,0.09,0,Wunderground v.1.15,2013-04-19 01:14:00,
2013-04-18 20:19:00,39.2,26.5,30.05,WNW,303,11.0,33.0,60,0.00,,,0.09,0,Wunderground v.1.15,2013-04-19 01:19:00,
2013-04-18 20:26:00,39.2,26.1,30.06,NNW,328,11.0,33.0,59,0.00,,,0.09,0,Wunderground v.1.15,2013-04-19 01:26:00,
2013-04-18 20:31:00,39.1,26.0,30.06,WNW,302,12.0,33.0,59,0.00,,,0.09,0,Wunderground v.1.15,2013-04-19 01:31:00,
2013-04-18 20:37:00,39.1,25.6,30.06,WNW,294,11.0,14.0,58,0.00,,,0.09,0,Wunderground v.1.15,2013-04-19 01:37:00,
2013-04-18 20:44:00,39.0,25.9,30.06,WNW,295,9.0,33.0,59,0.00,,,0.09,0,Wunderground v.1.15,2013-04-19 01:44:00,
2013-04-18 20:49:00,39.0,26.3,30.06,NW,314,10.0,33.0,60,0.00,,,0.09,0,Wunderground v.1.15,2013-04-19 01:49:00,
2013-04-18 20:56:00,39.0,25.9,30.06,NW,323,10.0,10.0,59,0.00,,,0.09,0,Wunderground v.1.15,2013-04-19 01:56:00,
2013-04-18 21:01:00,39.0,26.3,30.06,NW,314,9.0,33.0,60,0.00,,,0.09,0,Wunderground v.1.15,2013-04-19 02:01:00,
2013-04-18 21:08:00,38.9,26.2,30.06,NW,320,10.0,33.0,60,0.00,,,0.09,0,Wunderground v.1.15,2013-04-19 02:08:00,
2013-04-18 21:14:00,38.8,26.1,30.06,WNW,287,9.0,33.0,60,0.00,,,0.09,0,Wunderground v.1.15,2013-04-19 02:14:00,
2013-04-18 21:19:00,38.8,26.1,30.06,NW,309,10.0,33.0,60,0.00,,,0.09,0,Wunderground v.1.15,2013-04-19 02:19:00,
2013-04-18 21:25:00,38.7,26.0,30.07,WNW,303,10.0,10.0,60,0.00,,,0.09,0,Wunderground v.1.15,2013-04-19 02:25:00,
2013-04-18 21:32:00,38.6,25.9,30.07,NW,324,8.0,33.0,60,0.00,,,0.09,0,Wunderground v.1.15,2013-04-19 02:32:00,
2013-04-18 21:37:00,38.4,25.7,30.08,WNW,300,8.0,33.0,60,0.00,,,0.09,0,Wunderground v.1.15,2013-04-19 02:37:00,
2013-04-18 21:44:00,38.2,25.9,30.08,WNW,299,9.0,33.0,61,0.00,,,0.09,0,Wunderground v.1.15,2013-04-19 02:44:00,
2013-04-18 21:50:00,37.9,26.0,30.08,WNW,300,9.0,33.0,62,0.00,,,0.09,0,Wunderground v.1.15,2013-04-19 02:50:00,
2013-04-18 21:55:00,37.6,25.7,30.08,WNW,285,9.0,9.0,62,0.00,,,0.09,0,Wunderground v.1.15,2013-04-19 02:55:00,
2013-04-18 22:01:00,37.4,25.9,30.08,WNW,297,8.0,33.0,63,0.00,,,0.09,0,Wunderground v.1.15,2013-04-19 03:01:00,
2013-04-18 22:07:00,37.2,25.8,30.08,NW,313,8.0,33.0,63,0.00,,,0.09,0,Wunderground v.1.15,2013-04-19 03:07:00,
2013-04-18 22:14:00,37.1,25.3,30.08,WNW,299,8.0,33.0,62,0.00,,,0.09,0,Wunderground v.1.15,2013-04-19 03:14:00,
2013-04-18 22:20:00,37.0,25.2,30.08,NW,318,8.0,33.0,62,0.00,,,0.09,0,Wunderground v.1.15,2013-04-19 03:20:00,
2013-04-18 22:25:00,37.0,25.6,30.08,West,280,7.0,33.0,63,0.00,,,0.09,0,Wunderground v.1.15,2013-04-19 03:25:00,
2013-04-18 22:32:00,36.8,25.8,30.08,West,277,7.0,33.0,64,0.00,,,0.09,0,Wunderground v.1.15,2013-04-19 03:32:00,
2013-04-18 22:38:00,36.4,25.7,30.08,WNW,289,7.0,33.0,65,0.00,,,0.09,0,Wunderground v.1.15,2013-04-19 03:38:00,
2013-04-18 22:43:00,35.9,25.6,30.08,WNW,284,6.0,33.0,66,0.00,,,0.09,0,Wunderground v.1.15,2013-04-19 03:43:00,
2013-04-18 22:50:00,35.6,25.7,30.08,WNW,289,6.0,33.0,67,0.00,,,0.09,0,Wunderground v.1.15,2013-04-19 03:50:00,
2013-04-18 22:56:00,35.4,25.9,30.08,WNW,285,6.0,6.0,68,0.00,,,0.09,0,Wunderground v.1.15,2013-04-19 03:56:00,
2013-04-18 23:01:00,35.2,25.7,30.08,West,281,6.0,33.0,68,0.00,,,0.09,0,Wunderground v.1.15,2013-04-19 04:01:00,
2013-04-18 23:07:00,35.0,25.5,30.07,WNW,288,6.0,33.0,68,0.00,,,0.09,0,Wunderground v.1.15,2013-04-19 04:07:00,
2013-04-18 23:10:00,35.0,25.5,30.08,WNW,285,6.0,33.0,68,0.00,,,0.09,0,Wunderground v.1.15,2013-04-19 04:10:00,
2013-04-18 23:12:00,34.9,25.8,30.08,West,278,6.0,33.0,69,0.00,,,0.09,0,Wunderground v.1.15,2013-04-19 04:12:00,
2013-04-18 23:15:00,34.9,25.8,30.08,WNW,289,6.0,33.0,69,0.00,,,0.09,0,Wunderground v.1.15,2013-04-19 04:15:00,
2013-04-18 23:22:00,34.6,25.5,30.07,WNW,291,6.0,33.0,69,0.00,,,0.09,0,Wunderground v.1.15,2013-04-19 04:22:00,
2013-04-18 23:28:00,34.6,25.5,30.07,West,275,7.0,33.0,69,0.00,,,0.09,0,Wunderground v.1.15,2013-04-19 04:28:00,
2013-04-18 23:33:00,34.6,25.5,30.07,West,281,8.0,33.0,69,0.00,,,0.09,0,Wunderground v.1.15,2013-04-19 04:33:00,
2013-04-18 23:40:00,34.6,25.5,30.07,West,281,9.0,33.0,69,0.00,,,0.09,0,Wunderground v.1.15,2013-04-19 04:40:00,
2013-04-18 23:45:00,34.7,25.6,30.08,West,279,8.0,33.0,69,0.00,,,0.09,0,Wunderground v.1.15,2013-04-19 04:45:00,
2013-04-18 23:51:00,34.6,25.5,30.07,West,276,8.0,33.0,69,0.00,,,0.09,0,Wunderground v.1.15,2013-04-19 04:51:00,
2013-04-18 23:58:00,34.6,25.5,30.08,West,273,9.0,33.0,69,0.00,,,0.09,0,Wunderground v.1.15,2013-04-19 04:58:00,